[[{"header":{"parameterUnit":"m.s-1","parameterCategory":1,"la1":30.2991,"la2":30.254,"lo1":-89.0895,"lo2":-89.0444,"dy":0.0017,"dx":0.0017,"nx":28,"ny":28,"refTime":"2024-11-25T09:00:00:Z","depth":0,"parameterNumber":2,"parameterNumberName":"U-component_of_WINDS"},"data":[0,0,0,0,0,0,0,0,0,0,0,0,0,0,0,0,0,0,0,0,0,0,0,0,0,0,0,0,0,0,0,0,0,0,0,0,0,0,0,0,0,0,0,0,0,0,0,0,0,0,0,0,0,0,0,0,0,0,-0.0875,-0.0874,0,-0.0825,-0.0824,-0.0824,-0.0805,-0.0805,-0.0805,-0.0805,-0.0753,-0.0751,-0.075,0,0,0,0,0,0,0,0,0,0,0,0,0,-0.0951,-0.095,-0.0875,-0.0874,-0.0873,-0.0825,-0.0824,-0.0824,-0.0805,-0.0805,-0.0805,-0.0805,-0.0753,-0.0751,-0.075,0,0,0,0,0,0,0,0,0,0,0,0,0,-0.0911,-0.0949,-0.0875,-0.0858,-0.0856,-0.0825,-0.0824,-0.0823,-0.0805,-0.0805,-0.0805,-0.0805,-0.0754,-0.0752,-0.0749,-0.0731,0,0,-0.0742,-0.0741,0,0,0,0,0,0,0,0,-0.0914,-0.0909,-0.0861,-0.0859,-0.0857,-0.0821,-0.0832,-0.0792,-0.0805,-0.0824,-0.0805,-0.0805,-0.0775,-0.0771,-0.0761,-0.0728,-0.0726,-0.0742,-0.0741,-0.074,-0.0739,0,0,0,0,0,0,0,-0.0916,-0.0911,-0.0855,-0.0861,-0.0858,-0.0852,-0.0847,-0.0824,-0.0799,-0.0822,-0.0821,-0.0815,-0.0774,-0.0764,-0.076,-0.0725,-0.0742,-0.074,-0.0739,-0.0738,-0.0673,-0.0673,0,0,0,0,0,0,-0.0922,-0.0913,-0.0856,-0.0853,-0.0886,-0.0851,-0.0845,-0.0832,-0.0799,-0.0794,-0.0815,-0.0815,-0.0767,-0.0763,-0.0758,-0.0733,-0.074,-0.0738,-0.0736,-0.0674,-0.0673,-0.0673,0,0,0,0,0,0,-0.0924,-0.0917,-0.0858,-0.0883,-0.0875,-0.0849,-0.0836,-0.0831,-0.0821,-0.0794,-0.0789,-0.0809,-0.0767,-0.0761,-0.0738,-0.0731,-0.0737,-0.0734,-0.0674,-0.0674,-0.0673,-0.0684,0,0,0,0,0,0,-0.0926,-0.0918,-0.0911,-0.0883,-0.0874,-0.0839,-0.0835,-0.083,-0.0817,-0.0816,-0.0787,-0.0782,-0.0767,-0.0741,-0.0735,-0.0728,-0.0733,-0.0674,-0.0674,-0.0673,-0.0685,-0.0684,-0.0684,0,0,0,0,0,-0.0929,-0.0916,-0.0911,-0.0904,-0.0865,-0.0839,-0.0834,-0.0817,-0.0817,-0.0809,-0.0792,-0.0783,-0.0733,-0.0739,-0.0732,-0.0724,-0.0675,-0.0674,-0.0673,-0.0685,-0.0684,-0.0684,0,0,0,0,0,0,-0.0944,-0.0912,-0.0906,-0.0884,-0.0865,-0.0836,-0.0826,-0.0818,-0.0797,-0.0797,-0.0776,-0.077,-0.0748,-0.0734,-0.0741,-0.0704,-0.0703,-0.0701,-0.0714,-0.0714,-0.0714,-0.0717,-0.0731,0,0,0,0,0,-0.0945,-0.0928,-0.0901,-0.0884,-0.0874,-0.0852,-0.084,-0.0829,-0.0808,-0.0799,-0.078,-0.0759,-0.0738,-0.0725,-0.0705,-0.0682,-0.0675,-0.0674,-0.0674,-0.0674,-0.0672,-0.0658,-0.0657,-0.067,-0.067,-0.067,0,0,-0.0947,-0.0927,-0.0917,-0.0886,-0.087,-0.0851,-0.0845,-0.0826,-0.0812,-0.0796,-0.0772,-0.0758,-0.0733,-0.0709,-0.0698,-0.0697,-0.0667,-0.0673,-0.0673,-0.0671,-0.0657,-0.0656,-0.0655,-0.067,-0.067,-0.067,0,0,-0.094,-0.0924,-0.0908,-0.0891,-0.0867,-0.0852,-0.0848,-0.0821,-0.081,-0.0786,-0.0773,-0.0756,-0.0721,-0.0704,-0.0691,-0.0677,-0.0668,-0.0671,-0.067,-0.0657,-0.0656,-0.0655,-0.0649,-0.0647,-0.0669,-0.0669,-0.0669,0,-0.0945,-0.0918,-0.09,-0.0882,-0.0868,-0.0853,-0.0836,-0.0821,-0.0791,-0.0781,-0.078,-0.0736,-0.0718,-0.069,-0.0687,-0.0677,-0.0671,-0.0674,-0.0657,-0.0656,-0.0655,-0.0649,-0.0647,-0.067,-0.067,-0.067,-0.067,0,-0.0924,-0.0905,-0.0895,-0.0867,-0.0852,-0.0834,-0.0813,-0.08,-0.079,-0.0775,-0.075,-0.0729,-0.0703,-0.0696,-0.0686,-0.0666,-0.0666,-0.0661,-0.066,-0.0654,-0.0648,-0.0646,-0.067,-0.067,-0.067,-0.067,0,0,-0.0926,-0.0888,-0.0885,-0.0871,-0.0843,-0.0827,-0.0808,-0.0784,-0.0773,-0.0752,-0.0735,-0.0706,-0.0701,-0.0686,-0.0674,-0.0662,-0.0651,-0.0659,-0.0658,-0.0658,-0.0627,-0.063,-0.0628,-0.0645,-0.0645,-0.0645,-0.0629,0,-0.0915,-0.0882,-0.0866,-0.0839,-0.082,-0.0806,-0.0789,-0.0769,-0.0755,-0.0736,-0.072,-0.0699,-0.0695,-0.0686,-0.0674,-0.0655,-0.0645,-0.0656,-0.0629,-0.0628,-0.0635,-0.0625,-0.0629,-0.0615,-0.0627,-0.0626,-0.0626,0,-0.0898,-0.0878,-0.085,-0.0823,-0.0814,-0.08,-0.0776,-0.0759,-0.0735,-0.0725,-0.0708,-0.0696,-0.0675,-0.0675,-0.0645,-0.0653,-0.0641,-0.063,-0.0629,-0.0625,-0.0626,-0.0621,-0.061,-0.0608,-0.0622,-0.0623,-0.0623,0,-0.0902,-0.0868,-0.0846,-0.0835,-0.0803,-0.0793,-0.0779,-0.0756,-0.0742,-0.072,-0.0711,-0.0687,-0.0674,-0.0656,-0.0637,-0.0639,-0.0608,-0.0607,-0.0599,-0.0599,-0.0592,-0.0593,-0.0579,-0.0585,-0.0586,-0.0586,-0.0586,0,-0.0891,-0.0874,-0.0847,-0.0834,-0.0814,-0.0795,-0.0775,-0.076,-0.074,-0.0722,-0.0708,-0.0692,-0.0668,-0.0649,-0.0634,-0.0611,-0.0605,-0.0596,-0.0592,-0.0597,-0.0598,-0.0588,-0.0589,-0.0585,-0.0585,-0.0585,-0.0585,0,-0.0892,-0.0873,-0.0848,-0.082,-0.0812,-0.0799,-0.0774,-0.076,-0.0744,-0.0723,-0.0716,-0.0692,-0.0668,-0.0648,-0.0617,-0.0607,-0.0582,-0.0578,-0.059,-0.0588,-0.058,-0.0581,-0.0559,-0.0555,-0.0565,-0.0565,-0.0565,0,-0.0886,-0.0873,-0.0843,-0.083,-0.0817,-0.0797,-0.0783,-0.0763,-0.0749,-0.0721,-0.071,-0.0685,-0.0665,-0.0627,-0.0606,-0.0582,-0.0577,-0.0571,-0.0573,-0.0578,-0.0576,-0.0576,-0.0574,-0.057,-0.057,-0.057,-0.057,0,-0.0878,-0.0869,-0.0849,-0.0826,-0.0809,-0.079,-0.077,-0.076,-0.0737,-0.0721,-0.0697,-0.0681,-0.0649,-0.0625,-0.0598,-0.0583,-0.0572,-0.057,-0.0566,-0.0571,-0.0578,-0.0574,-0.0589,-0.057,-0.057,-0.057,-0.057,-0.057,-0.0874,-0.0862,-0.0838,-0.0817,-0.08,-0.0781,-0.0766,-0.0749,-0.0729,-0.0702,-0.0691,-0.0666,-0.0642,-0.0605,-0.059,-0.0569,-0.0568,-0.0563,-0.0562,-0.0561,-0.0561,-0.0582,-0.0565,-0.0565,-0.0565,-0.0565,-0.0564,0,-0.0865,-0.0849,-0.0829,-0.0802,-0.0784,-0.0777,-0.0754,-0.074,-0.0718,-0.0697,-0.0677,-0.0649,-0.0625,-0.0601,-0.0576,-0.0564,-0.0558,-0.0558,-0.0558,-0.0555,-0.0564,-0.057,-0.0563,-0.0563,-0.0563,-0.0563,-0.0563,-0.0563,-0.0858,-0.0835,-0.0824,-0.0792,-0.0776,-0.0752,-0.074,-0.0722,-0.0705,-0.0674,-0.0654,-0.064,-0.0617,-0.059,-0.0567,-0.056,-0.0551,-0.0552,-0.0544,-0.0554,-0.0554,-0.0555,-0.0559,-0.055,-0.055,-0.0536,-0.0536,-0.0536]},{"header":{"parameterUnit":"m.s-1","parameterCategory":1,"la1":30.2991,"la2":30.254,"lo1":-89.0895,"lo2":-89.0444,"dy":0.0017,"dx":0.0017,"nx":28,"ny":28,"refTime":"2024-11-25T09:00:00:Z","depth":0,"parameterNumber":3,"parameterNumberName":"V-component_of_WINDS"},"data":[0,0,0,0,0,0,0,0,0,0,0,0,0,0,0,0,0,0,0,0,0,0,0,0,0,0,0,0,0,0,0,0,0,0,0,0,0,0,0,0,0,0,0,0,0,0,0,0,0,0,0,0,0,0,0,0,0,0,-3.0271,-3.0272,0,-3.0399,-3.0401,-3.0402,-3.042,-3.0418,-3.0417,-3.0416,-3.0544,-3.0549,-3.0553,0,0,0,0,0,0,0,0,0,0,0,0,0,-3.0039,-3.0043,-3.0271,-3.0272,-3.0274,-3.0399,-3.0401,-3.0403,-3.042,-3.0418,-3.0417,-3.0415,-3.0543,-3.0548,-3.0554,0,0,0,0,0,0,0,0,0,0,0,0,0,-3.0151,-3.0045,-3.027,-3.0298,-3.0301,-3.0399,-3.0401,-3.0403,-3.042,-3.0418,-3.0416,-3.0415,-3.0541,-3.0548,-3.0554,-3.0632,0,0,-3.0575,-3.0578,0,0,0,0,0,0,0,0,-3.0144,-3.0159,-3.0292,-3.0296,-3.03,-3.0392,-3.0366,-3.048,-3.0421,-3.0375,-3.0416,-3.0414,-3.0495,-3.0505,-3.0533,-3.0638,-3.0644,-3.0576,-3.058,-3.0583,-3.0585,0,0,0,0,0,0,0,-3.0137,-3.0154,-3.0321,-3.0294,-3.0299,-3.0303,-3.0317,-3.0388,-3.0443,-3.0379,-3.038,-3.0395,-3.0497,-3.0527,-3.0536,-3.0646,-3.0576,-3.0582,-3.0586,-3.0589,-3.0824,-3.0826,0,0,0,0,0,0,-3.0124,-3.0147,-3.0317,-3.0325,-3.0216,-3.0309,-3.0324,-3.0364,-3.0443,-3.0453,-3.0397,-3.0396,-3.0516,-3.0528,-3.0541,-3.0639,-3.0583,-3.0589,-3.0593,-3.0822,-3.0824,-3.0827,0,0,0,0,0,0,-3.0119,-3.0139,-3.0312,-3.0237,-3.0259,-3.0315,-3.0359,-3.0368,-3.0398,-3.0456,-3.0466,-3.0417,-3.0515,-3.0531,-3.061,-3.0643,-3.0592,-3.0598,-3.0819,-3.0822,-3.0825,-3.0834,0,0,0,0,0,0,-3.0112,-3.0137,-3.0168,-3.0237,-3.0263,-3.038,-3.0361,-3.0371,-3.041,-3.0409,-3.0478,-3.0488,-3.0515,-3.06,-3.0617,-3.0652,-3.0604,-3.0816,-3.082,-3.0824,-3.0831,-3.0837,-3.0843,0,0,0,0,0,-3.0104,-3.0164,-3.0169,-3.0189,-3.0302,-3.0382,-3.0396,-3.0427,-3.0412,-3.0443,-3.0481,-3.0486,-3.0637,-3.0608,-3.0627,-3.0665,-3.0814,-3.0819,-3.0824,-3.0829,-3.0836,-3.0842,0,0,0,0,0,0,-3.0095,-3.0173,-3.018,-3.0264,-3.0316,-3.0384,-3.0424,-3.0434,-3.049,-3.0488,-3.0523,-3.0538,-3.0616,-3.0648,-3.0614,-3.0745,-3.0724,-3.0733,-3.0721,-3.0729,-3.0734,-3.0725,-3.0609,0,0,0,0,0,-3.0103,-3.0161,-3.0227,-3.0295,-3.0321,-3.0368,-3.0404,-3.0423,-3.0478,-3.05,-3.0544,-3.0596,-3.0656,-3.0694,-3.0752,-3.0836,-3.0852,-3.0872,-3.0877,-3.0882,-3.0889,-3.0937,-3.0947,-3.0843,-3.0842,-3.0842,0,0,-3.0119,-3.017,-3.0204,-3.0294,-3.0337,-3.0396,-3.0386,-3.0449,-3.0494,-3.0509,-3.0587,-3.0621,-3.0682,-3.0764,-3.0803,-3.0794,-3.0922,-3.0888,-3.0891,-3.0896,-3.0943,-3.0953,-3.0962,-3.0846,-3.0845,-3.0845,0,0,-3.018,-3.0224,-3.0286,-3.033,-3.0395,-3.0427,-3.0442,-3.051,-3.0533,-3.0612,-3.0626,-3.0679,-3.078,-3.0824,-3.0859,-3.0939,-3.0946,-3.0957,-3.0987,-3.1034,-3.1042,-3.1049,-3.1079,-3.1089,-3.0964,-3.0964,-3.0964,0,-3.0192,-3.0283,-3.0317,-3.038,-3.042,-3.0438,-3.0502,-3.0542,-3.0623,-3.0649,-3.0639,-3.0768,-3.081,-3.0904,-3.0924,-3.0952,-3.097,-3.0949,-3.1038,-3.1046,-3.1054,-3.1082,-3.1093,-3.0965,-3.0965,-3.0965,-3.0965,0,-3.0295,-3.0358,-3.0401,-3.048,-3.0525,-3.0587,-3.0631,-3.0672,-3.0688,-3.0721,-3.0801,-3.0853,-3.0923,-3.0947,-3.0962,-3.1043,-3.1036,-3.1031,-3.1011,-3.1064,-3.1091,-3.1102,-3.0967,-3.0966,-3.0966,-3.0966,0,0,-3.0352,-3.0451,-3.0466,-3.0503,-3.0578,-3.0627,-3.0692,-3.0761,-3.0796,-3.0851,-3.0907,-3.0994,-3.0991,-3.1031,-3.1052,-3.1093,-3.1155,-3.1084,-3.1086,-3.1096,-3.1248,-3.1251,-3.1263,-3.116,-3.1162,-3.1164,-3.1243,0,-3.0422,-3.0538,-3.0571,-3.0669,-3.0729,-3.0748,-3.0805,-3.0856,-3.0889,-3.0944,-3.098,-3.1042,-3.1033,-3.1057,-3.1099,-3.1138,-3.1186,-3.1133,-3.1211,-3.1214,-3.1196,-3.1278,-3.1281,-3.1353,-3.1254,-3.1256,-3.1257,0,-3.0518,-3.0578,-3.0682,-3.0752,-3.0778,-3.0828,-3.0895,-3.0948,-3.1007,-3.1028,-3.1075,-3.1093,-3.1161,-3.1137,-3.1232,-3.1196,-3.123,-3.1254,-3.1258,-3.1266,-3.1239,-3.1288,-3.1377,-3.1388,-3.1274,-3.1273,-3.1272,0,-3.055,-3.0656,-3.0733,-3.0764,-3.0846,-3.0881,-3.0917,-3.0975,-3.1016,-3.1075,-3.1102,-3.1167,-3.1203,-3.1253,-3.1289,-3.1268,-3.1381,-3.136,-3.14,-3.14,-3.1423,-3.1421,-3.1518,-3.1444,-3.1444,-3.1444,-3.1444,0,-3.0625,-3.0688,-3.0749,-3.0796,-3.0868,-3.0906,-3.0975,-3.1012,-3.1064,-3.1119,-3.1139,-3.119,-3.1234,-3.129,-3.1318,-3.1393,-3.1409,-3.1428,-3.1435,-3.1426,-3.1424,-3.1449,-3.1445,-3.1447,-3.1446,-3.1446,-3.1445,0,-3.0672,-3.0715,-3.08,-3.0872,-3.0892,-3.0942,-3.1003,-3.105,-3.1085,-3.1154,-3.1172,-3.1226,-3.1294,-3.1335,-3.142,-3.1439,-3.1522,-3.1526,-3.1502,-3.1505,-3.1544,-3.154,-3.1661,-3.1679,-3.1593,-3.1593,-3.1594,0,-3.0716,-3.0766,-3.0844,-3.0883,-3.092,-3.0982,-3.1024,-3.1064,-3.1107,-3.118,-3.1218,-3.1288,-3.1345,-3.1453,-3.15,-3.1566,-3.1572,-3.161,-3.1582,-3.1573,-3.1574,-3.157,-3.1576,-3.1615,-3.1615,-3.1616,-3.1616,0,-3.0791,-3.0811,-3.0871,-3.094,-3.0991,-3.1046,-3.1101,-3.1132,-3.1181,-3.1228,-3.1299,-3.1344,-3.1433,-3.1502,-3.1573,-3.1609,-3.1622,-3.1625,-3.1638,-3.163,-3.1614,-3.1624,-3.1516,-3.1622,-3.1621,-3.1621,-3.1621,-3.1621,-3.0839,-3.0885,-3.0948,-3.1015,-3.1061,-3.1113,-3.1161,-3.1203,-3.1263,-3.1339,-3.1359,-3.1434,-3.1494,-3.159,-3.1629,-3.1687,-3.1681,-3.17,-3.1705,-3.1709,-3.171,-3.1605,-3.17,-3.17,-3.17,-3.17,-3.17,0,-3.0915,-3.0958,-3.1019,-3.1097,-3.1151,-3.1159,-3.1222,-3.1265,-3.1331,-3.1387,-3.1444,-3.1527,-3.1595,-3.1647,-3.1717,-3.1754,-3.1762,-3.1771,-3.1769,-3.1777,-3.1711,-3.1693,-3.1764,-3.1764,-3.1764,-3.1764,-3.1764,-3.1764,-3.0961,-3.104,-3.1067,-3.1169,-3.1211,-3.1285,-3.132,-3.1369,-3.1414,-3.1505,-3.1562,-3.1597,-3.1652,-3.1727,-3.1789,-3.1803,-3.1828,-3.1837,-3.1852,-3.1789,-3.1782,-3.1775,-3.1759,-3.1842,-3.1842,-3.1913,-3.1914,-3.1914]}]]